[ hide orbit diagram ]
For accurate long-term ephemerides, please instead use our Horizons system.This orbit viewer was implemented using two-body methods, and hence should not be used for determining accurate long-term trajectories (over several years or decades) or planetary encounter circumstances.
Orbital Elements at Epoch 2459200.5 (2020-Dec-17.0) TDB
Reference: JPL 13 (heliocentric ecliptic J2000)
Element | Value | Uncertainty (1-sigma) | Units |
e | .1415927140413488 | 4.348e-08 | |
a | 3.122539293559026 | 2.3273e-08 | au |
q | 2.680410480283248 | 1.3627e-07 | au |
i | 5.437158280332605 | 5.8222e-06 | deg |
node | 35.94537321747815 | 4.7074e-05 | deg |
peri | 274.3111599345935 | 5.1356e-05 | deg |
M | 97.18172303192067 | 1.9667e-05 | deg |
tp | 2458656.445522044832 (2019-Jun-21.94552204) | 0.00010998 | TDB |
period | 2015.395549217908 5.52 | 2.2532e-05 6.169e-08 | d yr |
n | .1786249851249802 | 1.997e-09 | deg/d |
Q | 3.564668106834805 | 2.6568e-08 | au |
|
| | Orbit Determination Parameters
Additional Information
|
[ show covariance matrix ]
Physical Parameter Table
Parameter |
Symbol |
Value |
Units |
Sigma |
Reference |
Notes |
absolute magnitude |
H |
15.5 |
|
n/a |
MPO450050 |
|
|
226491 (2003 SR274) Discovered 2003-Sep-28 by Spacewatch at Kitt Peak |
Reference: 20091202/Numbers.arc | Last Updated: 2009-12-04 |
|
[ show close-approach data ]
|